Year,Month,Day,Hour,Minute,Value (Times are PST for temperature in C)
2018,08,24,00,00,12.40
2018,08,24,00,01,12.40
2018,08,24,00,02,12.40
2018,08,24,00,03,12.40
2018,08,24,00,04,12.40
2018,08,24,00,05,12.30
2018,08,24,00,06,12.30
2018,08,24,00,07,12.30
2018,08,24,00,08,12.30
2018,08,24,00,09,12.30
2018,08,24,00,10,12.30
2018,08,24,00,11,12.30
2018,08,24,00,12,12.40
2018,08,24,00,13,12.40
2018,08,24,00,14,12.40
2018,08,24,00,15,12.30
2018,08,24,00,16,12.30
2018,08,24,00,17,12.30
2018,08,24,00,18,12.40
2018,08,24,00,19,12.30
2018,08,24,00,20,12.30
2018,08,24,00,21,12.30
2018,08,24,00,22,12.30
2018,08,24,00,23,12.30
2018,08,24,00,24,12.30
2018,08,24,00,25,12.30
2018,08,24,00,26,12.30
2018,08,24,00,27,12.30
2018,08,24,00,28,12.30
2018,08,24,00,29,12.30
2018,08,24,00,30,12.30
2018,08,24,00,31,12.30
2018,08,24,00,32,12.30
2018,08,24,00,33,12.30
2018,08,24,00,34,12.30
2018,08,24,00,35,12.20
2018,08,24,00,36,12.20
2018,08,24,00,37,12.20
2018,08,24,00,38,12.20
2018,08,24,00,39,12.20
2018,08,24,00,40,12.20
2018,08,24,00,41,12.20
2018,08,24,00,42,12.20
2018,08,24,00,43,12.20
2018,08,24,00,44,12.10
2018,08,24,00,45,12.20
2018,08,24,00,46,12.10
2018,08,24,00,47,12.10
2018,08,24,00,48,12.10
2018,08,24,00,49,12.10
2018,08,24,00,50,12.10
2018,08,24,00,51,12.10
2018,08,24,00,52,12.10
2018,08,24,00,53,12.10
2018,08,24,00,54,12.10
2018,08,24,00,55,12.10
2018,08,24,00,56,12.00
2018,08,24,00,57,12.00
2018,08,24,00,58,12.00
2018,08,24,00,59,12.10
2018,08,24,01,00,12.10
2018,08,24,01,01,12.10
2018,08,24,01,02,12.10
2018,08,24,01,03,12.10
2018,08,24,01,04,12.10
2018,08,24,01,05,12.10
2018,08,24,01,06,12.10
2018,08,24,01,07,12.10
2018,08,24,01,08,12.10
2018,08,24,01,09,12.10
2018,08,24,01,10,12.10
2018,08,24,01,11,12.00
2018,08,24,01,12,12.00
2018,08,24,01,13,12.10
2018,08,24,01,14,12.00
2018,08,24,01,15,12.10
2018,08,24,01,16,12.00
2018,08,24,01,17,12.00
2018,08,24,01,18,12.00
2018,08,24,01,19,12.00
2018,08,24,01,20,12.00
2018,08,24,01,21,12.00
2018,08,24,01,22,12.00
2018,08,24,01,23,12.00
2018,08,24,01,24,12.00
2018,08,24,01,25,12.00
2018,08,24,01,26,12.00
2018,08,24,01,27,12.10
2018,08,24,01,28,12.00
2018,08,24,01,29,12.10
2018,08,24,01,30,12.10
2018,08,24,01,31,12.10
2018,08,24,01,32,12.10
2018,08,24,01,33,12.10
2018,08,24,01,34,12.10
2018,08,24,01,35,12.20
2018,08,24,01,36,12.20
2018,08,24,01,37,12.20
2018,08,24,01,38,12.20
2018,08,24,01,39,12.20
2018,08,24,01,40,12.20
2018,08,24,01,41,12.20
2018,08,24,01,42,12.20
2018,08,24,01,43,12.20
2018,08,24,01,44,12.20
2018,08,24,01,45,12.30
2018,08,24,01,46,12.30
2018,08,24,01,47,12.30
2018,08,24,01,48,12.30
2018,08,24,01,49,12.30
2018,08,24,01,50,12.40
2018,08,24,01,51,12.40
2018,08,24,01,52,12.40
2018,08,24,01,53,12.40
2018,08,24,01,54,12.40
2018,08,24,01,55,12.40
2018,08,24,01,56,12.40
2018,08,24,01,57,12.50
2018,08,24,01,58,12.50
2018,08,24,01,59,12.50
2018,08,24,02,00,12.50
2018,08,24,02,01,12.50
2018,08,24,02,02,12.50
2018,08,24,02,03,12.50
2018,08,24,02,04,12.60
2018,08,24,02,05,12.60
2018,08,24,02,06,12.60
2018,08,24,02,07,12.60
2018,08,24,02,08,12.60
2018,08,24,02,09,12.60
2018,08,24,02,10,12.60
2018,08,24,02,11,12.60
2018,08,24,02,12,12.70
2018,08,24,02,13,12.70
2018,08,24,02,14,12.70
2018,08,24,02,15,12.70
2018,08,24,02,16,12.70
2018,08,24,02,17,12.70
2018,08,24,02,18,12.70
2018,08,24,02,19,12.70
2018,08,24,02,20,12.80
2018,08,24,02,21,12.80
2018,08,24,02,22,12.80
2018,08,24,02,23,12.80
2018,08,24,02,24,12.80
2018,08,24,02,25,12.80
2018,08,24,02,26,12.90
2018,08,24,02,27,12.90
2018,08,24,02,28,12.90
2018,08,24,02,29,12.90
2018,08,24,02,30,12.90
2018,08,24,02,31,12.90
2018,08,24,02,32,12.90
2018,08,24,02,33,12.90
2018,08,24,02,34,12.90
2018,08,24,02,35,12.90
2018,08,24,02,36,12.90
2018,08,24,02,37,12.90
2018,08,24,02,38,12.90
2018,08,24,02,39,12.90
2018,08,24,02,40,12.90
2018,08,24,02,41,12.90
2018,08,24,02,42,12.90
2018,08,24,02,43,12.90
2018,08,24,02,44,12.90
2018,08,24,02,45,12.90
2018,08,24,02,46,12.90
2018,08,24,02,47,12.90
2018,08,24,02,48,12.90
2018,08,24,02,49,12.90
2018,08,24,02,50,12.90
2018,08,24,02,51,12.90
2018,08,24,02,52,12.90
2018,08,24,02,53,12.90
2018,08,24,02,54,12.90
2018,08,24,02,55,12.90
2018,08,24,02,56,12.90
2018,08,24,02,57,12.90
2018,08,24,02,58,12.90
2018,08,24,02,59,12.90
2018,08,24,03,00,12.90
2018,08,24,03,01,12.90
2018,08,24,03,02,12.90
2018,08,24,03,03,12.90
2018,08,24,03,04,12.90
2018,08,24,03,05,12.90
2018,08,24,03,06,12.80
2018,08,24,03,07,12.90
2018,08,24,03,08,12.90
2018,08,24,03,09,12.80
2018,08,24,03,10,12.90
2018,08,24,03,11,12.90
2018,08,24,03,12,12.90
2018,08,24,03,13,12.90
2018,08,24,03,14,12.90
2018,08,24,03,15,12.90
2018,08,24,03,16,12.90
2018,08,24,03,17,12.90
2018,08,24,03,18,13.00
2018,08,24,03,19,13.00
2018,08,24,03,20,13.10
2018,08,24,03,21,13.10
2018,08,24,03,22,13.10
2018,08,24,03,23,13.20
2018,08,24,03,24,13.30
2018,08,24,03,25,13.40
2018,08,24,03,26,13.50
2018,08,24,03,27,13.60
2018,08,24,03,28,13.60
2018,08,24,03,29,13.70
2018,08,24,03,30,13.80
2018,08,24,03,31,13.90
2018,08,24,03,32,14.00
2018,08,24,03,33,14.10
2018,08,24,03,34,14.10
2018,08,24,03,35,14.10
2018,08,24,03,36,14.20
2018,08,24,03,37,14.20
2018,08,24,03,38,14.30
2018,08,24,03,39,14.30
2018,08,24,03,40,14.40
2018,08,24,03,41,14.40
2018,08,24,03,42,14.40
2018,08,24,03,43,14.40
2018,08,24,03,44,14.50
2018,08,24,03,45,14.50
2018,08,24,03,46,14.60
2018,08,24,03,47,14.60
2018,08,24,03,48,14.70
2018,08,24,03,49,14.70
2018,08,24,03,50,14.70
2018,08,24,03,51,14.80
2018,08,24,03,52,14.80
2018,08,24,03,53,14.80
2018,08,24,03,54,14.80
2018,08,24,03,55,14.80
2018,08,24,03,56,14.80
2018,08,24,03,57,14.80
2018,08,24,03,58,14.80
2018,08,24,03,59,14.80
2018,08,24,04,00,14.80
2018,08,24,04,01,14.80
2018,08,24,04,02,14.80
2018,08,24,04,03,14.70
2018,08,24,04,04,14.70
2018,08,24,04,05,14.70
2018,08,24,04,06,14.60
2018,08,24,04,07,14.60
2018,08,24,04,08,14.60
2018,08,24,04,09,14.50
2018,08,24,04,10,14.50
2018,08,24,04,11,14.50
2018,08,24,04,12,14.50
2018,08,24,04,13,14.40
2018,08,24,04,14,14.40
2018,08,24,04,15,14.40
2018,08,24,04,16,14.40
2018,08,24,04,17,14.40
2018,08,24,04,18,14.40
2018,08,24,04,19,14.40
2018,08,24,04,20,14.50
2018,08,24,04,21,14.50
2018,08,24,04,22,14.60
2018,08,24,04,23,14.60
2018,08,24,04,24,14.60
2018,08,24,04,25,14.60
2018,08,24,04,26,14.60
2018,08,24,04,27,14.60
2018,08,24,04,28,14.60
2018,08,24,04,29,14.60
2018,08,24,04,30,14.60
2018,08,24,04,31,14.60
2018,08,24,04,32,14.60
2018,08,24,04,33,14.60
2018,08,24,04,34,14.60
2018,08,24,04,35,14.60
2018,08,24,04,36,14.60
2018,08,24,04,37,14.60
2018,08,24,04,38,14.60
2018,08,24,04,39,14.60
2018,08,24,04,40,14.60
2018,08,24,04,41,14.60
2018,08,24,04,42,14.60
2018,08,24,04,43,14.60
2018,08,24,04,44,14.60
2018,08,24,04,45,14.60
2018,08,24,04,46,14.60
2018,08,24,04,47,14.60
2018,08,24,04,48,14.60
2018,08,24,04,49,14.60
2018,08,24,04,50,14.60
2018,08,24,04,51,14.60
2018,08,24,04,52,14.50
2018,08,24,04,53,14.50
2018,08,24,04,54,14.50
2018,08,24,04,55,14.50
2018,08,24,04,56,14.40
2018,08,24,04,57,14.40
2018,08,24,04,58,14.40
2018,08,24,04,59,14.40
2018,08,24,05,00,14.30
2018,08,24,05,01,14.30
2018,08,24,05,02,14.30
2018,08,24,05,03,14.30
2018,08,24,05,04,14.30
2018,08,24,05,05,14.30
2018,08,24,05,06,14.40
2018,08,24,05,07,14.50
2018,08,24,05,08,14.50
2018,08,24,05,09,14.60
2018,08,24,05,10,14.70
2018,08,24,05,11,14.80
2018,08,24,05,12,14.80
2018,08,24,05,13,14.80
2018,08,24,05,14,14.90
2018,08,24,05,15,14.90
2018,08,24,05,16,14.90
2018,08,24,05,17,14.90
2018,08,24,05,18,14.90
2018,08,24,05,19,14.90
2018,08,24,05,20,14.90
2018,08,24,05,21,14.90
2018,08,24,05,22,14.90
2018,08,24,05,23,14.90
2018,08,24,05,24,15.00
2018,08,24,05,25,15.10
2018,08,24,05,26,15.10
2018,08,24,05,27,15.10
2018,08,24,05,28,15.20
2018,08,24,05,29,15.20
2018,08,24,05,30,15.20
2018,08,24,05,31,15.20
2018,08,24,05,32,15.20
2018,08,24,05,33,15.20
2018,08,24,05,34,15.20
2018,08,24,05,35,15.20
2018,08,24,05,36,15.20
2018,08,24,05,37,15.20
2018,08,24,05,38,15.20
2018,08,24,05,39,15.30
2018,08,24,05,40,15.30
2018,08,24,05,41,15.30
2018,08,24,05,42,15.30
2018,08,24,05,43,15.30
2018,08,24,05,44,15.30
2018,08,24,05,45,15.30
2018,08,24,05,46,15.20
2018,08,24,05,47,15.30
2018,08,24,05,48,15.30
2018,08,24,05,49,15.20
2018,08,24,05,50,15.20
2018,08,24,05,51,15.20
2018,08,24,05,52,15.20
2018,08,24,05,53,15.20
2018,08,24,05,54,15.20
2018,08,24,05,55,15.20
2018,08,24,05,56,15.20
2018,08,24,05,57,15.20
2018,08,24,05,58,15.20
2018,08,24,05,59,15.20
2018,08,24,06,00,15.20
2018,08,24,06,01,15.10
2018,08,24,06,02,15.10
2018,08,24,06,03,15.10
2018,08,24,06,04,15.10
2018,08,24,06,05,15.10
2018,08,24,06,06,15.10
2018,08,24,06,07,15.10
2018,08,24,06,08,15.10
2018,08,24,06,09,15.10
2018,08,24,06,10,15.10
2018,08,24,06,11,15.10
2018,08,24,06,12,15.10
2018,08,24,06,13,15.10
2018,08,24,06,14,15.10
2018,08,24,06,15,15.10
2018,08,24,06,16,15.10
2018,08,24,06,17,15.00
2018,08,24,06,18,15.10
2018,08,24,06,19,15.10
2018,08,24,06,20,15.10
2018,08,24,06,21,15.10
2018,08,24,06,22,15.10
2018,08,24,06,23,15.10
2018,08,24,06,24,15.10
2018,08,24,06,25,15.10
2018,08,24,06,26,15.10
2018,08,24,06,27,15.10
2018,08,24,06,28,15.10
2018,08,24,06,29,15.10
2018,08,24,06,30,15.10
2018,08,24,06,31,15.10
2018,08,24,06,32,15.10
2018,08,24,06,33,15.10
2018,08,24,06,34,15.00
2018,08,24,06,35,15.10
2018,08,24,06,36,15.00
2018,08,24,06,37,15.00
2018,08,24,06,38,15.00
2018,08,24,06,39,15.00
2018,08,24,06,40,15.00
2018,08,24,06,41,15.00
2018,08,24,06,42,15.00
2018,08,24,06,43,15.10
2018,08,24,06,44,15.10
2018,08,24,06,45,15.10
2018,08,24,06,46,15.10
2018,08,24,06,47,15.10
2018,08,24,06,48,15.10
2018,08,24,06,49,15.20
2018,08,24,06,50,15.10
2018,08,24,06,51,15.20
2018,08,24,06,52,15.20
2018,08,24,06,53,15.20
2018,08,24,06,54,15.10
2018,08,24,06,55,15.20
2018,08,24,06,56,15.10
2018,08,24,06,57,15.10
2018,08,24,06,58,15.10
2018,08,24,06,59,15.10
2018,08,24,07,00,15.10
2018,08,24,07,01,15.20
2018,08,24,07,02,15.20
2018,08,24,07,03,15.20
2018,08,24,07,04,15.20
2018,08,24,07,05,15.20
2018,08,24,07,06,15.20
2018,08,24,07,07,15.20
2018,08,24,07,08,15.20
2018,08,24,07,09,15.20
2018,08,24,07,10,15.20
2018,08,24,07,11,15.20
2018,08,24,07,12,15.20
2018,08,24,07,13,15.20
2018,08,24,07,14,15.20
2018,08,24,07,15,15.20
2018,08,24,07,16,15.20
2018,08,24,07,17,15.20
2018,08,24,07,18,15.20
2018,08,24,07,19,15.20
2018,08,24,07,20,15.20
2018,08,24,07,21,15.20
2018,08,24,07,22,15.20
2018,08,24,07,23,15.20
2018,08,24,07,24,15.30
2018,08,24,07,25,15.30
2018,08,24,07,26,15.30
2018,08,24,07,27,15.30
2018,08,24,07,28,15.30
2018,08,24,07,29,15.30
2018,08,24,07,30,15.30
2018,08,24,07,31,15.40
2018,08,24,07,32,15.40
2018,08,24,07,33,15.40
2018,08,24,07,34,15.30
2018,08,24,07,35,15.40
2018,08,24,07,36,15.40
2018,08,24,07,37,15.40
2018,08,24,07,38,15.40
2018,08,24,07,39,15.40
2018,08,24,07,40,15.40
2018,08,24,07,41,15.40
2018,08,24,07,42,15.40
2018,08,24,07,43,15.40
2018,08,24,07,44,15.30
2018,08,24,07,45,15.40
2018,08,24,07,46,15.40
2018,08,24,07,47,15.40
2018,08,24,07,48,15.40
2018,08,24,07,49,15.40
2018,08,24,07,50,15.40
2018,08,24,07,51,15.40
2018,08,24,07,52,15.40
2018,08,24,07,53,15.40
2018,08,24,07,54,15.40
2018,08,24,07,55,15.40
2018,08,24,07,56,15.40
2018,08,24,07,57,15.40
2018,08,24,07,58,15.50
2018,08,24,07,59,15.50
2018,08,24,08,00,15.50
2018,08,24,08,01,15.50
2018,08,24,08,02,15.60
2018,08,24,08,03,15.60
2018,08,24,08,04,15.60
2018,08,24,08,05,15.60
2018,08,24,08,06,15.60
2018,08,24,08,07,15.60
2018,08,24,08,08,15.60
2018,08,24,08,09,15.60
2018,08,24,08,10,15.60
2018,08,24,08,11,15.60
2018,08,24,08,12,15.70
2018,08,24,08,13,15.70
2018,08,24,08,14,15.70
2018,08,24,08,15,15.70
2018,08,24,08,16,15.70
2018,08,24,08,17,15.70
2018,08,24,08,18,15.70
2018,08,24,08,19,15.70
2018,08,24,08,20,15.70
2018,08,24,08,21,15.80
2018,08,24,08,22,15.80
2018,08,24,08,23,15.80
2018,08,24,08,24,15.80
2018,08,24,08,25,15.80
2018,08,24,08,26,15.80
2018,08,24,08,27,15.80
2018,08,24,08,28,15.80
2018,08,24,08,29,15.90
2018,08,24,08,30,15.90
2018,08,24,08,31,15.90
2018,08,24,08,32,15.90
2018,08,24,08,33,15.90
2018,08,24,08,34,16.00
2018,08,24,08,35,16.00
2018,08,24,08,36,16.00
2018,08,24,08,37,16.00
2018,08,24,08,38,16.00
2018,08,24,08,39,16.00
2018,08,24,08,40,16.10
2018,08,24,08,41,16.10
2018,08,24,08,42,16.10
2018,08,24,08,43,16.10
2018,08,24,08,44,16.10
2018,08,24,08,45,16.10
2018,08,24,08,46,16.10
2018,08,24,08,47,16.10
2018,08,24,08,48,16.10
2018,08,24,08,49,16.10
2018,08,24,08,50,16.20
2018,08,24,08,51,16.20
2018,08,24,08,52,16.20
2018,08,24,08,53,16.20
2018,08,24,08,54,16.20
2018,08,24,08,55,16.20
2018,08,24,08,56,16.20
2018,08,24,08,57,16.20
2018,08,24,08,58,16.20
2018,08,24,08,59,16.20
2018,08,24,09,00,16.20
2018,08,24,09,01,16.30
2018,08,24,09,02,16.30
2018,08,24,09,03,16.30
2018,08,24,09,04,16.30
2018,08,24,09,05,16.30
2018,08,24,09,06,16.30
2018,08,24,09,07,16.30
2018,08,24,09,08,16.30
2018,08,24,09,09,16.40
2018,08,24,09,10,16.40
2018,08,24,09,11,16.40
2018,08,24,09,12,16.40
2018,08,24,09,13,16.40
2018,08,24,09,14,16.40
2018,08,24,09,15,16.50
2018,08,24,09,16,16.50
2018,08,24,09,17,16.50
2018,08,24,09,18,16.50
2018,08,24,09,19,16.50
2018,08,24,09,20,16.60
2018,08,24,09,21,16.60
2018,08,24,09,22,16.60
2018,08,24,09,23,16.60
2018,08,24,09,24,16.60
2018,08,24,09,25,16.60
2018,08,24,09,26,16.60
2018,08,24,09,27,16.60
2018,08,24,09,28,16.60
2018,08,24,09,29,16.60
2018,08,24,09,30,16.70
2018,08,24,09,31,16.70
2018,08,24,09,32,16.70
2018,08,24,09,33,16.70
2018,08,24,09,34,16.70
2018,08,24,09,35,16.70
2018,08,24,09,36,16.70
2018,08,24,09,37,16.70
2018,08,24,09,38,16.70
2018,08,24,09,39,16.70
2018,08,24,09,40,16.70
2018,08,24,09,41,16.70
2018,08,24,09,42,16.80
2018,08,24,09,43,16.80
2018,08,24,09,44,16.90
2018,08,24,09,45,16.90
2018,08,24,09,46,16.90
2018,08,24,09,47,17.00
2018,08,24,09,48,17.10
2018,08,24,09,49,17.20
2018,08,24,09,50,17.30
2018,08,24,09,51,17.40
2018,08,24,09,52,17.50
2018,08,24,09,53,17.60
2018,08,24,09,54,17.60
2018,08,24,09,55,17.60
2018,08,24,09,56,17.60
2018,08,24,09,57,17.70
2018,08,24,09,58,17.70
2018,08,24,09,59,17.70
2018,08,24,10,00,17.70
2018,08,24,10,01,17.70
2018,08,24,10,02,17.70
2018,08,24,10,03,17.70
2018,08,24,10,04,17.70
2018,08,24,10,05,17.70
2018,08,24,10,06,17.80
2018,08,24,10,07,17.80
2018,08,24,10,08,17.80
2018,08,24,10,09,17.90
2018,08,24,10,10,17.90
2018,08,24,10,11,17.90
2018,08,24,10,12,17.90
2018,08,24,10,13,17.90
2018,08,24,10,14,18.00
2018,08,24,10,15,18.10
2018,08,24,10,16,18.10
2018,08,24,10,17,18.20
2018,08,24,10,18,18.20
2018,08,24,10,19,18.30
2018,08,24,10,20,18.30
2018,08,24,10,21,18.30
2018,08,24,10,22,18.30
2018,08,24,10,23,18.20
2018,08,24,10,24,18.20
2018,08,24,10,25,18.20
2018,08,24,10,26,18.20
2018,08,24,10,27,18.30
2018,08,24,10,28,18.30
2018,08,24,10,29,18.30
2018,08,24,10,30,18.20
2018,08,24,10,31,18.20
2018,08,24,10,32,18.20
2018,08,24,10,33,18.10
2018,08,24,10,34,18.10
2018,08,24,10,35,18.10
2018,08,24,10,36,18.10
2018,08,24,10,37,18.10
2018,08,24,10,38,18.10
2018,08,24,10,39,18.10
2018,08,24,10,40,18.10
2018,08,24,10,41,18.00
2018,08,24,10,42,18.00
2018,08,24,10,43,17.90
2018,08,24,10,44,17.90
2018,08,24,10,45,17.80
2018,08,24,10,46,17.80
2018,08,24,10,47,17.70
2018,08,24,10,48,17.70
2018,08,24,10,49,17.70
2018,08,24,10,50,17.60
2018,08,24,10,51,17.60
2018,08,24,10,52,17.60
2018,08,24,10,53,17.60
2018,08,24,10,54,17.60
2018,08,24,10,55,17.60
2018,08,24,10,56,17.60
2018,08,24,10,57,17.70
2018,08,24,10,58,17.70
2018,08,24,10,59,17.70
2018,08,24,11,00,17.70
2018,08,24,11,01,17.60
2018,08,24,11,02,17.60
2018,08,24,11,03,17.60
2018,08,24,11,04,17.60
2018,08,24,11,05,17.60
2018,08,24,11,06,17.60
2018,08,24,11,07,17.60
2018,08,24,11,08,17.60
2018,08,24,11,09,17.70
2018,08,24,11,10,17.80
2018,08,24,11,11,17.90
2018,08,24,11,12,18.00
2018,08,24,11,13,18.10
2018,08,24,11,14,18.20
2018,08,24,11,15,18.20
2018,08,24,11,16,18.30
2018,08,24,11,17,18.40
2018,08,24,11,18,18.50
2018,08,24,11,19,18.70
2018,08,24,11,20,18.80
2018,08,24,11,21,18.80
2018,08,24,11,22,18.90
2018,08,24,11,23,19.00
2018,08,24,11,24,19.00
2018,08,24,11,25,19.00
2018,08,24,11,26,19.00
2018,08,24,11,27,18.90
2018,08,24,11,28,18.90
2018,08,24,11,29,18.90
2018,08,24,11,30,19.00
2018,08,24,11,31,19.00
2018,08,24,11,32,19.00
2018,08,24,11,33,19.10
2018,08,24,11,34,19.20
2018,08,24,11,35,19.30
2018,08,24,11,36,19.40
2018,08,24,11,37,19.40
2018,08,24,11,38,19.40
2018,08,24,11,39,19.40
2018,08,24,11,40,19.40
2018,08,24,11,41,19.40
2018,08,24,11,42,19.50
2018,08,24,11,43,19.60
2018,08,24,11,44,19.60
2018,08,24,11,45,19.60
2018,08,24,11,46,19.70
2018,08,24,11,47,19.80
2018,08,24,11,48,19.80
2018,08,24,11,49,19.80
2018,08,24,11,50,19.80
2018,08,24,11,51,19.90
2018,08,24,11,52,19.90
2018,08,24,11,53,19.90
2018,08,24,11,54,19.90
2018,08,24,11,55,19.90
2018,08,24,11,56,19.90
2018,08,24,11,57,19.80
2018,08,24,11,58,19.80
2018,08,24,11,59,19.70
2018,08,24,12,00,19.60
2018,08,24,12,01,19.60
2018,08,24,12,02,19.50
2018,08,24,12,03,19.50
2018,08,24,12,04,19.50
2018,08,24,12,05,19.50
2018,08,24,12,06,19.60
2018,08,24,12,07,19.60
2018,08,24,12,08,19.70
2018,08,24,12,09,19.70
2018,08,24,12,10,19.80
2018,08,24,12,11,19.80
2018,08,24,12,12,19.90
2018,08,24,12,13,20.00
2018,08,24,12,14,20.00
2018,08,24,12,15,20.10
2018,08,24,12,16,20.20
2018,08,24,12,17,20.20
2018,08,24,12,18,20.30
2018,08,24,12,19,20.30
2018,08,24,12,20,20.30
2018,08,24,12,21,20.30
2018,08,24,12,22,20.30
2018,08,24,12,23,20.30
2018,08,24,12,24,20.40
2018,08,24,12,25,20.40
2018,08,24,12,26,20.40
2018,08,24,12,27,20.40
2018,08,24,12,28,20.50
2018,08,24,12,29,20.50
2018,08,24,12,30,20.50
2018,08,24,12,31,20.50
2018,08,24,12,32,20.50
2018,08,24,12,33,20.50
2018,08,24,12,34,20.60
2018,08,24,12,35,20.50
2018,08,24,12,36,20.40
2018,08,24,12,37,20.20
2018,08,24,12,38,20.10
2018,08,24,12,39,20.00
2018,08,24,12,40,19.90
2018,08,24,12,41,19.80
2018,08,24,12,42,19.70
2018,08,24,12,43,19.70
2018,08,24,12,44,19.70
2018,08,24,12,45,19.70
2018,08,24,12,46,19.70
2018,08,24,12,47,19.70
2018,08,24,12,48,19.60
2018,08,24,12,49,19.70
2018,08,24,12,50,19.70
2018,08,24,12,51,19.70
2018,08,24,12,52,19.70
2018,08,24,12,53,19.70
2018,08,24,12,54,19.60
2018,08,24,12,55,19.60
2018,08,24,12,56,19.60
2018,08,24,12,57,19.60
2018,08,24,12,58,19.50
2018,08,24,12,59,19.50
2018,08,24,13,00,19.50
2018,08,24,13,01,19.40
2018,08,24,13,02,19.40
2018,08,24,13,03,19.40
2018,08,24,13,04,19.30
2018,08,24,13,05,19.30
2018,08,24,13,06,19.20
2018,08,24,13,07,19.20
2018,08,24,13,08,19.20
2018,08,24,13,09,19.30
2018,08,24,13,10,19.30
2018,08,24,13,11,19.40
2018,08,24,13,12,19.40
2018,08,24,13,13,19.40
2018,08,24,13,14,19.40
2018,08,24,13,15,19.40
2018,08,24,13,16,19.40
2018,08,24,13,17,19.50
2018,08,24,13,18,19.50
2018,08,24,13,19,19.50
2018,08,24,13,20,19.60
2018,08,24,13,21,19.60
2018,08,24,13,22,19.50
2018,08,24,13,23,19.50
2018,08,24,13,24,19.50
2018,08,24,13,25,19.40
2018,08,24,13,26,19.40
2018,08,24,13,27,19.40
2018,08,24,13,28,19.40
2018,08,24,13,29,19.40
2018,08,24,13,30,19.50
2018,08,24,13,31,19.50
2018,08,24,13,32,19.50
2018,08,24,13,33,19.60
2018,08,24,13,34,19.60
2018,08,24,13,35,19.60
2018,08,24,13,36,19.60
2018,08,24,13,37,19.60
2018,08,24,13,38,19.60
2018,08,24,13,39,19.60
2018,08,24,13,40,19.60
2018,08,24,13,41,19.70
2018,08,24,13,42,19.70
2018,08,24,13,43,19.70
2018,08,24,13,44,19.60
2018,08,24,13,45,19.60
2018,08,24,13,46,19.50
2018,08,24,13,47,19.40
2018,08,24,13,48,19.40
2018,08,24,13,49,19.50
2018,08,24,13,50,19.60
2018,08,24,13,51,19.60
2018,08,24,13,52,19.70
2018,08,24,13,53,19.60
2018,08,24,13,54,19.60
2018,08,24,13,55,19.60
2018,08,24,13,56,19.60
2018,08,24,13,57,19.60
2018,08,24,13,58,19.70
2018,08,24,13,59,19.70
2018,08,24,14,00,19.70
2018,08,24,14,01,19.70
2018,08,24,14,02,19.60
2018,08,24,14,03,19.40
2018,08,24,14,04,19.20
2018,08,24,14,05,19.10
2018,08,24,14,06,19.00
2018,08,24,14,07,19.00
2018,08,24,14,08,18.90
2018,08,24,14,09,18.90
2018,08,24,14,10,18.90
2018,08,24,14,11,18.90
2018,08,24,14,12,18.80
2018,08,24,14,13,18.80
2018,08,24,14,14,18.80
2018,08,24,14,15,18.90
2018,08,24,14,16,18.90
2018,08,24,14,17,19.00
2018,08,24,14,18,19.10
2018,08,24,14,19,19.10
2018,08,24,14,20,19.20
2018,08,24,14,21,19.30
2018,08,24,14,22,19.40
2018,08,24,14,23,19.50
2018,08,24,14,24,19.60
2018,08,24,14,25,19.60
2018,08,24,14,26,19.60
2018,08,24,14,27,19.50
2018,08,24,14,28,19.50
2018,08,24,14,29,19.50
2018,08,24,14,30,19.50
2018,08,24,14,31,19.50
2018,08,24,14,32,19.60
2018,08,24,14,33,19.60
2018,08,24,14,34,19.60
2018,08,24,14,35,19.60
2018,08,24,14,36,19.60
2018,08,24,14,37,19.60
2018,08,24,14,38,19.60
2018,08,24,14,39,19.60
2018,08,24,14,40,19.50
2018,08,24,14,41,19.50
2018,08,24,14,42,19.50
2018,08,24,14,43,19.50
2018,08,24,14,44,19.50
2018,08,24,14,45,19.60
2018,08,24,14,46,19.60
2018,08,24,14,47,19.60
2018,08,24,14,48,19.60
2018,08,24,14,49,19.60
2018,08,24,14,50,19.70
2018,08,24,14,51,19.70
2018,08,24,14,52,19.80
2018,08,24,14,53,19.80
2018,08,24,14,54,19.90
2018,08,24,14,55,19.90
2018,08,24,14,56,19.90
2018,08,24,14,57,20.00
2018,08,24,14,58,20.00
2018,08,24,14,59,20.00
2018,08,24,15,00,20.00
2018,08,24,15,01,19.90
2018,08,24,15,02,19.90
2018,08,24,15,03,19.90
2018,08,24,15,04,19.90
2018,08,24,15,05,19.90
2018,08,24,15,06,19.90
2018,08,24,15,07,19.90
2018,08,24,15,08,19.90
2018,08,24,15,09,19.80
2018,08,24,15,10,19.80
2018,08,24,15,11,19.80
2018,08,24,15,12,19.80
2018,08,24,15,13,19.80
2018,08,24,15,14,19.80
2018,08,24,15,15,19.90
2018,08,24,15,16,20.00
2018,08,24,15,17,20.00
2018,08,24,15,18,20.10
2018,08,24,15,19,20.10
2018,08,24,15,20,20.20
2018,08,24,15,21,20.20
2018,08,24,15,22,20.20
2018,08,24,15,23,20.30
2018,08,24,15,24,20.30
2018,08,24,15,25,20.40
2018,08,24,15,26,20.40
2018,08,24,15,27,20.40
2018,08,24,15,28,20.40
2018,08,24,15,29,20.40
2018,08,24,15,30,20.40
2018,08,24,15,31,20.30
2018,08,24,15,32,20.30
2018,08,24,15,33,20.30
2018,08,24,15,34,20.30
2018,08,24,15,35,20.30
2018,08,24,15,36,20.40
2018,08,24,15,37,20.40
2018,08,24,15,38,20.30
2018,08,24,15,39,20.30
2018,08,24,15,40,20.30
2018,08,24,15,41,20.30
2018,08,24,15,42,20.30
2018,08,24,15,43,20.40
2018,08,24,15,44,20.50
2018,08,24,15,45,20.60
2018,08,24,15,46,20.60
2018,08,24,15,47,20.70
2018,08,24,15,48,20.70
2018,08,24,15,49,20.70
2018,08,24,15,50,20.80
2018,08,24,15,51,20.80
2018,08,24,15,52,20.80
2018,08,24,15,53,20.90
2018,08,24,15,54,20.90
2018,08,24,15,55,20.90
2018,08,24,15,56,20.90
2018,08,24,15,57,20.90
2018,08,24,15,58,20.80
2018,08,24,15,59,20.80
2018,08,24,16,00,20.60
2018,08,24,16,01,20.50
2018,08,24,16,02,20.50
2018,08,24,16,03,20.50
2018,08,24,16,04,20.50
2018,08,24,16,05,20.50
2018,08,24,16,06,20.50
2018,08,24,16,07,20.60
2018,08,24,16,08,20.60
2018,08,24,16,09,20.70
2018,08,24,16,10,20.80
2018,08,24,16,11,20.80
2018,08,24,16,12,20.90
2018,08,24,16,13,21.00
2018,08,24,16,14,21.10
2018,08,24,16,15,21.20
2018,08,24,16,16,21.20
2018,08,24,16,17,21.30
2018,08,24,16,18,21.40
2018,08,24,16,19,21.40
2018,08,24,16,20,21.40
2018,08,24,16,21,21.50
2018,08,24,16,22,21.50
2018,08,24,16,23,21.50
2018,08,24,16,24,21.50
2018,08,24,16,25,21.50
2018,08,24,16,26,21.50
2018,08,24,16,27,21.50
2018,08,24,16,28,21.50
2018,08,24,16,29,21.60
2018,08,24,16,30,21.60
2018,08,24,16,31,21.60
2018,08,24,16,32,21.60
2018,08,24,16,33,21.60
2018,08,24,16,34,21.60
2018,08,24,16,35,21.60
2018,08,24,16,36,21.60
2018,08,24,16,37,21.50
2018,08,24,16,38,21.50
2018,08,24,16,39,21.40
2018,08,24,16,40,21.40
2018,08,24,16,41,21.40
2018,08,24,16,42,21.40
2018,08,24,16,43,21.40
2018,08,24,16,44,21.40
2018,08,24,16,45,21.40
2018,08,24,16,46,21.40
2018,08,24,16,47,21.40
2018,08,24,16,48,21.30
2018,08,24,16,49,21.30
2018,08,24,16,50,21.30
2018,08,24,16,51,21.30
2018,08,24,16,52,21.30
2018,08,24,16,53,21.30
2018,08,24,16,54,21.30
2018,08,24,16,55,21.20
2018,08,24,16,56,21.20
2018,08,24,16,57,21.10
2018,08,24,16,58,21.10
2018,08,24,16,59,21.00
2018,08,24,17,00,20.90
2018,08,24,17,01,20.90
2018,08,24,17,02,20.80
2018,08,24,17,03,20.70
2018,08,24,17,04,20.70
2018,08,24,17,05,20.60
2018,08,24,17,06,20.60
2018,08,24,17,07,20.50
2018,08,24,17,08,20.50
2018,08,24,17,09,20.50
2018,08,24,17,10,20.40
2018,08,24,17,11,20.40
2018,08,24,17,12,20.40
2018,08,24,17,13,20.40
2018,08,24,17,14,20.40
2018,08,24,17,15,20.40
2018,08,24,17,16,20.40
2018,08,24,17,17,20.40
2018,08,24,17,18,20.30
2018,08,24,17,19,20.30